Retour au catalogue

STARLINK-32303

ActifCommunicationsVLEO
NORAD 61912·PAYLOAD·🇺🇸 United States

Lancé Nov 11, 2024 depuis Cape Canaveral Space Force Station

Loading…

Prochains Passages (prochaines 24 heures)

TLE

FraisSource: CelesTrak SupGP

Époque: Sep 14, 2026, 20:51 UTC

1 61912C 24207A   26257.86923611 -.00012535  00000+0 -45394-3 0  2574
2 61912  43.0008 293.3111 0001434 274.7903 140.1157 15.27590447    14

Suivez STARLINK-32303 en temps réel avec AllMySat

Download on the App Store